User: anonymous   Login
Location: Unspecified
(0.0000°N, 0.0000°E)
Time: 00:46:40
(UTC+00:00)
Language:

COSMOS 2468 - Orbit

View from above orbital plane
View from above orbital plane
View from above satellite
View from above satellite

Ground track
Ground track

The orbit data is extracted from the following two-line orbital elements,

1 37154U 10043C   16340.49024093  .00000028  00000-0  12970-3 0  9995
2 37154  82.4629  81.3410 0014177 343.0801  16.9802 12.43629071283272
Epoch (UTC): 05 December 2016 11:45:56
Eccentricity: 0.0014177
inclination: 82.4629°
perigee height: 1480 km
apogee height: 1502 km
right ascension of ascending node: 81.3410°
argument of perigee: 343.0801°
revolutions per day: 12.43629071
mean anomaly at epoch: 16.9802°
orbit number at epoch: 28327

The dashed part of the orbit path shows where the satellite is in the earth's shadow,  

DLR